This demonstration page uses our WeatherBlox Daily Observations layout. Learn more.

Left ArrowRight Arrow

31.31129, -92.44514

Hourly Observations for August 19, 2016

Temp ( °F °C ) Dew Point ( °F °C ) Humidity (%) Winds ( mph kmh ) Pressure ( in mb ) Visibility ( mi km ) Precip ( " mm )
12:06 am 00:06 Mostly Clear 73 22.8 73 22.8 100 100 Calm 30.03 1017 9 14 0.00 0.00
12:53 am 00:53 Clear 73 22.8 73 22.8 100 100 Calm 30.03 1017 10 16 0.00 0.00
1:53 am 01:53 Mostly Clear 74 23.3 73 22.8 97 97 ESE 5 7 30.02 1017 10 16 0.00 0.00
2:15 am 02:15 Mostly Cloudy 74 23.3 73 22.8 97 97 ESE 7 11 30.00 1016 10 16 0.00 0.00
2:22 am 02:22 Mostly Cloudy 74 23.3 74 23.3 100 100 SE 6 9 30.00 1016 10 16 0.00 0.00
2:53 am 02:53 Cloudy 74 23.3 74 23.3 100 100 SE 6 9 30.01 1016 8 13 0.00 0.00
3:53 am 03:53 Cloudy with Mist and Fog 74 23.3 74 23.3 100 100 SSE 5 7 30.00 1016 6 10 0.00 0.00
4:53 am 04:53 Mostly Cloudy with Mist and Fog 74 23.3 74 23.3 100 100 Calm 30.00 1016 6 10 0.00 0.00
5:01 am 05:01 Partly Cloudy with Mist and Fog 74 23.3 74 23.3 100 100 Calm 30.00 1016 6 10 0.00 0.00
5:38 am 05:38 Mostly Cloudy with Mist and Fog 74 23.3 74 23.3 100 100 Calm 30.00 1016 4 6 0.00 0.00
5:53 am 05:53 Mostly Cloudy with Mist and Fog 74 23.3 74 23.3 100 100 SE 3 6 30.00 1016 5 8 0.00 0.00
6:00 am 06:00 Partly Cloudy with Mist and Fog 74 23.3 74 23.3 100 100 SE 3 6 30.00 1016 6 10 0.00 0.00
6:53 am 06:53 Mostly Cloudy with Mist and Fog 73 22.8 73 22.8 100 100 Calm 30.01 1016 6 10 0.00 0.00
7:53 am 07:53 Cloudy with Mist and Fog 75 23.9 75 23.9 100 100 SE 3 6 30.01 1016 6 10 0.00 0.00
8:53 am 08:53 Cloudy with Mist and Fog 75 23.9 75 23.9 100 100 Calm 30.02 1017 4 6 0.00 0.00
9:53 am 09:53 Cloudy with Mist and Fog 78 25.6 77 25 97 97 SSE 3 6 30.02 1017 6 10 0.00 0.00
10:27 am 10:27 Cloudy 79 26.1 77 25 94 94 Calm 30.03 1017 8 13 0.00 0.00
10:53 am 10:53 Mostly Cloudy 82 27.8 78 25.6 88 88 SW 3 6 30.01 1016 9 14 0.00 0.00
11:00 am 11:00 Partly Cloudy 82 27.8 78 25.6 88 88 Calm 30.00 1016 8 13 0.00 0.00
11:11 am 11:11 Mostly Cloudy 81 27.2 77 25 88 88 W 3 6 30.00 1016 8 13 0.00 0.00
11:19 am 11:19 Mostly Cloudy 82 27.8 78 25.6 88 88 VRB 3 6 30.00 1016 9 14 0.00 0.00
11:40 am 11:40 Mostly Cloudy 85 29.4 78 25.6 80 80 Calm 30.00 1016 10 16 0.00 0.00
11:53 am 11:53 Mostly Cloudy 84 28.9 76 24.4 77 77 Calm 30.00 1016 10 16 0.00 0.00
12:06 pm 12:06 Mostly Cloudy with Nearby Thunderstorms 85 29.4 78 25.6 80 80 VRB 3 6 30.00 1016 10 16 0.00 0.00
12:29 pm 12:29 Mostly Cloudy with Thunderstorms 82 27.8 77 25 85 85 W 12 19 30.00 1016 5 8 0.01 0.25
12:39 pm 12:39 Cloudy with Strong Thunderstorms 77 25 75 23.9 94 94 W 12 19 30.00 1016 2 3 0.08 2.03
12:50 pm 12:50 Cloudy with Nearby Thunderstorms 75 24 73 23 94 94 W 5 7 30.00 1016 1 1 0.29 7.37
12:53 pm 12:53 Cloudy with Strong Thunderstorms 75 23.9 74 23.3 96 96 Calm 30.01 1016 1 1 0.32 8.13
1:05 pm 13:05 Cloudy with Thunderstorms 75 23.9 74 23.3 96 96 ENE 7 11 30.00 1016 2 3 0.06 1.52
1:13 pm 13:13 Cloudy with Thunderstorms 75 23.9 75 23.9 100 100 ENE 6 9 30.00 1016 5 8 0.07 1.78
1:34 pm 13:34 Mostly Cloudy 76 24.4 75 23.9 97 97 NNE 5 7 29.97 1015 10 16 0.07 1.78
1:53 pm 13:53 Mostly Sunny 78 25.6 76 24.4 93 93 NE 7 11 29.98 1015 10 16 0.07 1.78
2:44 pm 14:44 Sunny with Nearby Thunderstorms 83 28.3 75 23.9 77 77 Calm 29.97 1015 10 16 0.00 0.00
2:53 pm 14:53 Sunny with Nearby Thunderstorms 82 27.8 75 23.9 79 79 SSW 3 6 29.98 1015 10 16 0.00 0.00
3:08 pm 15:08 Partly Cloudy with Thunderstorms 79 26.1 74 23.3 85 85 WSW 8 13 29.97 1015 10 16 0.00 0.00
3:23 pm 15:23 Mostly Cloudy with Light Rain 79 26.1 74 23.3 85 85 SW 6 9 29.97 1015 9 14 0.00 0.03
3:53 pm 15:53 Mostly Cloudy with Light Rain 79 26.1 75 23.9 88 88 SE 6 9 29.93 1014 10 16 0.00 0.03
4:53 pm 16:53 Sunny 81 27.2 74 23.3 79 79 S 3 6 29.93 1014 10 16 0.00 0.03
5:53 pm 17:53 Mostly Sunny 78 25.6 74 23.3 87 87 SSE 3 6 29.93 1014 10 16 0.00 0.00
6:53 pm 18:53 Sunny 79 26.1 76 24.4 90 90 SSE 6 9 29.94 1014 10 16 0.00 0.00
7:53 pm 19:53 Clear 78 25.6 76 24.4 93 93 SSE 6 9 29.93 1014 9 14 0.00 0.00
8:53 pm 20:53 Clear 77 25 76 24.4 96 96 SE 6 9 29.93 1014 8 13 0.00 0.00
9:53 pm 21:53 Clear 76 24.4 75 23.9 97 97 SE 5 7 29.94 1014 10 16 0.00 0.00
10:53 pm 22:53 Clear 75 23.9 75 23.9 100 100 SSE 3 6 29.95 1014 9 14 0.00 0.00
11:53 pm 23:53 Clear 75 23.9 75 23.9 100 100 SSE 5 7 29.94 1014 9 14 0.00 0.00

Powered by AerisWeather